Bad Axe, MI

1:38 AM EST on November 23, 2017 (GMT -0500)
Huron County Memorial

Weather History for KBAX - January, 2013

Change the Weather History Date:

Tuesday, January 15, 2013

  Actual Average (KP58) Record (KP58)
Temperature  
Mean Temperature 18 °F -  
Max Temperature 25 °F 26 °F 41 °F (2016)
Min Temperature 12 °F 15 °F 0 °F (2009)
Degree Days  
Heating Degree Days 46    
Moisture  
Dew Point 15 °F    
Average Humidity 85    
Maximum Humidity 93    
Minimum Humidity 68    
Precipitation  
Precipitation 0.00 in - - ()
Sea Level Pressure  
Sea Level Pressure 30.31 in    
Wind  
Wind Speed 2 mph (SW)    
Max Wind Speed 8 mph    
Max Gust Speed -    
Visibility 10 miles    
Events      
Averages and records for this station are not official NWS values.
T = Trace of Precipitation, MM = Missing Value Source: NWS Daily Summary

Daily Weather History Graph

Daily Weather History Graph

Search for Another Location

Airport or City:

Trip Planner

Search our weather history database for the weather conditions in past years. The results will help you decide how hot, cold, wet, or windy it might be!

Date:

Astronomy

Jan. 15, 2013 Rise Set
Actual Time 8:02 AM EST 5:20 PM EST
Civil Twilight 7:30 AM EST 5:52 PM EST
Nautical Twilight 6:55 AM EST 6:28 PM EST
Astronomical Twilight 6:20 AM EST 7:02 PM EST
Moon 9:57 AM EST (1/15) 10:20 PM EST (1/15)
Length of Visible Light 10h 21m
Length of Day
9h 18m
Waxing Crescent, 19% of the Moon is Illuminated
Jan 15
Waxing Crescent
Jan 18
First Quarter
Jan 26
Full
Feb 3
Last Quarter
Feb 10
New

Hourly Weather History & Observations

Time (EST) Temp. Windchill Dew Point Humidity Pressure Visibility Wind Dir Wind Speed Gust Speed Precip Events Conditions
12:14 AM 16.3 °F 10.8 °F 12.9 °F 86% 30.36 in 10.0 mi SW 3.5 mph - N/A   Clear
12:34 AM 16.0 °F 10.4 °F 12.7 °F 87% 30.35 in 10.0 mi WSW 3.5 mph - N/A   Clear
12:54 AM 14.9 °F - 12.2 °F 89% 30.36 in 10.0 mi Calm Calm - N/A   Clear
1:13 AM 14.9 °F 9.2 °F 12.2 °F 89% 30.36 in 10.0 mi West 3.5 mph - N/A   Clear
1:34 AM 15.4 °F - 12.7 °F 89% 30.36 in 10.0 mi Calm Calm - N/A   Clear
1:54 AM 15.4 °F - 12.9 °F 90% 30.36 in 10.0 mi Calm Calm - N/A   Clear
2:13 AM 15.8 °F - 13.1 °F 89% 30.36 in 10.0 mi Calm Calm - N/A   Clear
2:34 AM 14.9 °F - 12.7 °F 91% 30.36 in 10.0 mi Calm Calm - N/A   Clear
2:54 AM 14.9 °F 9.2 °F 12.7 °F 91% 30.36 in 10.0 mi South 3.5 mph - N/A   Clear
3:14 AM 14.5 °F 8.8 °F 12.2 °F 90% 30.36 in 10.0 mi South 3.5 mph - N/A   Clear
3:34 AM 14.0 °F - 12.0 °F 92% 30.37 in 10.0 mi Calm Calm - N/A   Clear
4:13 AM 14.4 °F - 12.4 °F 92% 30.36 in 10.0 mi Calm Calm - N/A   Clear
4:34 AM 14.0 °F - 12.2 °F 93% 30.36 in 10.0 mi Calm Calm - N/A   Clear
4:54 AM 12.6 °F - 10.4 °F 91% 30.35 in 10.0 mi Calm Calm - N/A   Clear
5:14 AM 13.8 °F 8.0 °F 11.8 °F 92% 30.35 in 10.0 mi SSW 3.5 mph - N/A   Clear
5:54 AM 13.5 °F - 11.3 °F 91% 30.36 in 10.0 mi Calm Calm - N/A   Clear
6:14 AM 13.6 °F - 11.3 °F 90% 30.37 in 10.0 mi Calm Calm - N/A   Clear
6:34 AM 13.6 °F - 11.3 °F 90% 30.37 in 10.0 mi Calm Calm - N/A   Clear
6:54 AM 12.7 °F - 10.6 °F 91% 30.37 in 10.0 mi Calm Calm - N/A   Clear
7:14 AM 13.6 °F - 11.7 °F 92% 30.38 in 10.0 mi Calm Calm - N/A   Clear
7:34 AM 13.5 °F - 11.3 °F 91% 30.38 in 10.0 mi Calm Calm - N/A   Clear
7:54 AM 13.5 °F - 11.3 °F 91% 30.38 in 10.0 mi Calm Calm - N/A   Clear
8:14 AM 12.9 °F 6.9 °F 10.9 °F 92% 30.38 in 10.0 mi SSW 3.5 mph - N/A   Clear
8:34 AM 13.1 °F 7.1 °F 11.1 °F 92% 30.38 in 10.0 mi SSW 3.5 mph - N/A   Clear
8:54 AM 14.4 °F - 12.4 °F 92% 30.38 in 10.0 mi Calm Calm - N/A   Clear
9:14 AM 14.9 °F 9.2 °F 13.1 °F 93% 30.39 in 10.0 mi SSW 3.5 mph - N/A   Clear
9:35 AM 16.5 °F 9.4 °F 14.4 °F 91% 30.38 in 10.0 mi SSW 4.6 mph - N/A   Clear
9:54 AM 18.3 °F 11.5 °F 16.0 °F 91% 30.39 in 10.0 mi WSW 4.6 mph - N/A   Clear
10:14 AM 19.2 °F 14.1 °F 16.3 °F 89% 30.39 in 10.0 mi SW 3.5 mph - N/A   Clear
10:35 AM 20.8 °F 13.2 °F 17.2 °F 86% 30.39 in 10.0 mi WSW 5.8 mph - N/A   Clear
10:54 AM 21.7 °F 14.3 °F 17.6 °F 84% 30.39 in 10.0 mi WSW 5.8 mph - N/A   Clear
11:14 AM 22.6 °F 18.0 °F 18.0 °F 82% 30.39 in 10.0 mi SW 3.5 mph - N/A   Clear
11:35 AM 23.4 °F 18.9 °F 18.1 °F 80% 30.38 in 10.0 mi SW 3.5 mph - N/A   Clear
11:54 AM 24.3 °F 18.4 °F 18.0 °F 77% 30.38 in 10.0 mi WSW 4.6 mph - N/A   Scattered Clouds
12:14 PM 23.9 °F 15.8 °F 17.8 °F 77% 30.37 in 10.0 mi WSW 6.9 mph - N/A   Scattered Clouds
12:34 PM 24.4 °F 18.6 °F 17.8 °F 76% 30.36 in 10.0 mi West 4.6 mph - N/A   Scattered Clouds
12:54 PM 24.8 °F 20.5 °F 18.1 °F 76% 30.35 in 10.0 mi West 3.5 mph - N/A   Mostly Cloudy
1:14 PM 25.0 °F 18.1 °F 18.3 °F 76% 30.33 in 10.0 mi West 5.8 mph - N/A   Mostly Cloudy
1:35 PM 25.3 °F 19.7 °F 17.1 °F 71% 30.32 in 10.0 mi WSW 4.6 mph - N/A   Scattered Clouds
1:54 PM 25.7 °F - 17.4 °F 71% 30.31 in 10.0 mi Calm Calm - N/A   Clear
2:34 PM 25.7 °F 17.1 °F 17.8 °F 72% 30.32 in 10.0 mi SSW 8.1 mph - N/A   Clear
2:54 PM 25.7 °F 18.0 °F 17.8 °F 72% 30.32 in 10.0 mi SW 6.9 mph - N/A   Clear
3:15 PM 25.2 °F 18.3 °F 16.0 °F 68% 30.31 in 10.0 mi SSW 5.8 mph - N/A   Clear
3:34 PM 25.7 °F 19.0 °F 16.5 °F 68% 30.30 in 10.0 mi SW 5.8 mph - N/A   Clear
3:54 PM 25.5 °F 19.9 °F 16.7 °F 69% 30.29 in 10.0 mi WSW 4.6 mph - N/A   Clear
4:15 PM 24.8 °F 20.5 °F 17.2 °F 73% 30.29 in 10.0 mi WSW 3.5 mph - N/A   Clear
4:34 PM 25.0 °F 20.7 °F 17.2 °F 72% 30.29 in 10.0 mi WSW 3.5 mph - N/A   Clear
4:54 PM 23.9 °F 19.5 °F 16.7 °F 74% 30.28 in 10.0 mi WSW 3.5 mph - N/A   Clear
5:15 PM 23.0 °F 17.0 °F 16.5 °F 76% 30.28 in 10.0 mi West 4.6 mph - N/A   Clear
5:34 PM 22.1 °F 17.4 °F 16.3 °F 79% 30.27 in 10.0 mi West 3.5 mph - N/A   Clear
5:54 PM 21.4 °F - 16.2 °F 80% 30.27 in 10.0 mi Calm Calm - N/A   Clear
6:15 PM 20.7 °F - 16.5 °F 84% 30.27 in 10.0 mi Calm Calm - N/A   Clear
6:34 PM 20.5 °F - 16.7 °F 85% 30.27 in 10.0 mi Calm Calm - N/A   Clear
6:54 PM 19.4 °F - 16.0 °F 87% 30.27 in 10.0 mi Calm Calm - N/A   Clear
7:14 PM 19.0 °F - 16.2 °F 89% 30.26 in 10.0 mi Calm Calm - N/A   Clear
7:35 PM 18.5 °F 13.3 °F 15.8 °F 89% 30.26 in 10.0 mi South 3.5 mph - N/A   Clear
7:54 PM 19.2 °F 12.5 °F 16.0 °F 87% 30.25 in 10.0 mi SSW 4.6 mph - N/A   Clear
8:14 PM 18.5 °F 11.7 °F 15.6 °F 89% 30.24 in 10.0 mi SSW 4.6 mph - N/A   Clear
8:35 PM 18.7 °F 13.5 °F 15.6 °F 88% 30.23 in 10.0 mi SSW 3.5 mph - N/A   Clear
8:54 PM 18.5 °F 13.3 °F 15.8 °F 89% 30.23 in 10.0 mi SSW 3.5 mph - N/A   Clear
9:14 PM 17.8 °F 12.5 °F 14.9 °F 88% 30.21 in 10.0 mi SSW 3.5 mph - N/A   Clear
9:35 PM 17.2 °F - 14.4 °F 88% 30.20 in 10.0 mi Calm Calm - N/A   Clear
9:54 PM 17.2 °F 11.9 °F 14.5 °F 89% 30.19 in 10.0 mi South 3.5 mph - N/A   Clear
10:14 PM 16.9 °F - 14.4 °F 90% 30.17 in 10.0 mi Calm Calm - N/A   Clear
10:35 PM 16.7 °F - 14.0 °F 89% 30.17 in 10.0 mi Calm Calm - N/A   Clear
10:54 PM 15.8 °F - 13.3 °F 90% 30.16 in 10.0 mi Calm Calm - N/A   Scattered Clouds
11:14 PM 14.7 °F 9.0 °F 12.4 °F 90% 30.16 in 10.0 mi SSE 3.5 mph - N/A   Scattered Clouds
11:33 PM 17.4 °F 10.4 °F 15.4 °F 92% 30.15 in 10.0 mi SSE 4.6 mph - N/A   Scattered Clouds
11:54 PM 17.1 °F 11.7 °F 14.0 °F 88% 30.14 in 10.0 mi South 3.5 mph - N/A   Clear